User: anonymous   Login
Location: Caltech
(34.1382°N, 118.1253°W)
Time: 19:52:04
(UTC-08:00)
Language:

Aureole 3 Rocket - Orbit

View from above orbital plane
View from above orbital plane
View from above satellite
View from above satellite

Ground track
Ground track

The orbit data is extracted from the following two-line orbital elements,

1 12849U 81094B   17054.65626749  .00000378  00000-0  32965-4 0  9995
2 12849  82.4891 253.8622 0903568   0.3687 359.7930 13.50058085726603
Epoch (UTC): 23 February 2017 15:45:01
Eccentricity: 0.0903568
inclination: 82.4891°
perigee height: 399 km
apogee height: 1745 km
right ascension of ascending node: 253.8622°
argument of perigee: 0.3687°
revolutions per day: 13.50058085
mean anomaly at epoch: 359.7930°
orbit number at epoch: 72660

The dashed part of the orbit path shows where the satellite is in the earth's shadow,  

DLR